Location: Pedimozza
(42.0500°N, 9.3500°E)
Time: 00:04:23
(UTC+00:00)

Cosmos 44 - Pass Details

Date: 19 August 2019
Orbit: 589 x 773 km, 65.1° (Epoch: 19 September)

Event Time Altitude Azimuth Distance (km) Brightness Sun altitude
Rises 19:32:49 0° 327° (NNW) 2,935 7.8 -13.5°
Reaches altitude 10° 19:35:09 10° 328° (NNW) 1,997 6.7 -13.9°
Maximum altitude 19:39:39 87° 55° (NE) 610 3.0 -14.6°
Enters shadow 19:42:17 23° 147° (SSE) 1,265 4.1 -15.0°
